This demonstration page uses our WeatherBlox Daily Observations layout. Learn more.

Left ArrowRight Arrow

Hourly Observations for June 30, 2017

Temp ( °F °C ) Dew Point ( °F °C ) Humidity (%) Winds ( mph kmh ) Pressure ( in mb ) Visibility ( mi km ) Precip ( " mm )
12:51 am 00:51 Clear 84 28.9 31 -0.6 15 15 NW 14 22 29.72 1006 10 16 N/A
1:51 am 01:51 Clear 82 27.8 29 -1.7 14 14 NNW 12 19 29.71 1006 10 16 N/A
2:51 am 02:51 Clear 81 27.2 28 -2.2 14 14 NNW 9 15 29.71 1006 10 16 N/A
3:51 am 03:51 Clear 73 22.8 31 -0.6 21 21 S 5 7 29.73 1007 10 16 N/A
4:51 am 04:51 Clear 69 20.6 29 -1.7 22 22 E 6 9 29.77 1008 10 16 N/A
5:51 am 05:51 Sunny 70 21.1 31 -0.6 23 23 E 6 9 29.78 1009 10 16 N/A
6:51 am 06:51 Sunny 77 25 32 undefined 19 19 SE 7 11 29.80 1009 10 16 N/A
7:51 am 07:51 Sunny 82 27.8 29 -1.7 14 14 SSW 3 6 29.80 1009 10 16 N/A
8:51 am 08:51 Sunny 87 30.6 30 -1.1 13 13 N N/A 29.79 1009 10 16 N/A
9:51 am 09:51 Sunny 92 33.3 30 -1.1 11 11 VRB 5 7 29.78 1008 10 16 N/A
10:51 am 10:51 Sunny 95 35 31 -0.6 10 10 undefined N/A 29.76 1008 10 16 N/A
11:51 am 11:51 Sunny 97 36.1 32 undefined 10 10 N N/A 29.75 1007 10 16 N/A
12:51 pm 12:51 Sunny 98 36.7 28 -2.2 8 8 S 5 7 29.71 1006 10 16 N/A
1:51 pm 13:51 Sunny 101 38.3 22 -5.6 6 6 VRB 3 6 29.68 1005 10 16 N/A
2:51 pm 14:51 Sunny 102 38.9 19 -7.2 5 5 WSW 8 13 29.66 1005 10 16 N/A
3:51 pm 15:51 Sunny 104 40 18 -7.8 4 4 VRB 3 6 29.65 1004 9 14 N/A
4:51 pm 16:51 Sunny 102 38.9 18 -7.8 5 5 SSE 6 9 29.65 1004 9 14 N/A
5:51 pm 17:51 Sunny 102 38.9 20 -6.7 5 5 S 8 13 29.64 1004 10 16 N/A
6:51 pm 18:51 Sunny 100 37.8 23 -5 6 6 W 9 15 29.63 1003 10 16 N/A
7:51 pm 19:51 Clear 94 34.4 25 -3.9 8 8 W 9 15 29.65 1004 10 16 N/A
8:51 pm 20:51 Clear 90 32.2 15 -9.4 6 6 NW 12 19 29.67 1005 10 16 N/A
9:51 pm 21:51 Clear 89 31.7 11 -11.7 5 5 NW 13 20 29.68 1005 10 16 N/A
10:51 pm 22:51 Clear 85 29.4 10 -12.2 6 6 NW 8 13 29.69 1006 10 16 N/A
11:51 pm 23:51 Clear 78 25.6 9 -12.8 7 7 WNW 7 11 29.70 1006 10 16 N/A

Powered by AerisWeather